Location: City of Moscow
(46.7306°N, 116.9989°W)
Time: 13:51:06
(UTC+00:00)

CUBEBUG 2 - Pass Details

Date: 26 April 2026
Orbit: 546 x 628 km, 97.9° (Epoch: 15 May)

Event Time Altitude Azimuth Distance (km) Brightness Sun altitude
Rises 10:19:27 0° 13° (NNE) 2,826 ? -20.5°
Reaches altitude 10° 10:21:38 10° 13° (NNE) 1,907 ? -20.3°
Maximum altitude 10:25:46 88° 281° (W) 577 ? -19.8°
Enters shadow 10:26:46 51° 197° (SSW) 720 ? -19.7°
